• In France
  • List of Countries
  • For 7 days
  • Water Temperature
  • Satellite Maps
  • Weather Map
  • Weather Widgets
  • user-avatar
    Login

    Hourly Weather Djelfa

    Today, 14 November, Wednesday

    Time Temperature Precipitation Wind Pressure Humidity
    00:00 +10°C° 0 mm 7 mps 668 mmHg 83%
    01:00 +9°C° 0 mm 7 mps 668 mmHg 84%
    02:00 +9°C° 0 mm 7 mps 667 mmHg 84%
    03:00 +9°C° 0 mm 7 mps 667 mmHg 85%
    04:00 +9°C° 0 mm 7 mps 667 mmHg 86%
    05:00 +9°C° 0 mm 7 mps 667 mmHg 88%
    06:00 +9°C° 0 mm 6 mps 667 mmHg 89%
    07:00 +10°C° 0 mm 7 mps 667 mmHg 85%
    08:00 +10°C° 0 mm 8 mps 668 mmHg 81%
    09:00 +11°C° 0 mm 9 mps 668 mmHg 77%
    10:00 +12°C° 0 mm 9 mps 668 mmHg 73%
    11:00 +12°C° 0 mm 10 mps 667 mmHg 69%
    12:00 +13°C° 0 mm 10 mps 667 mmHg 65%
    13:00 +13°C° 0 mm 10 mps 667 mmHg 64%
    14:00 +13°C° 0 mm 11 mps 666 mmHg 62%
    15:00 +14°C° 0 mm 11 mps 665 mmHg 60%
    16:00 +13°C° 0 mm 11 mps 665 mmHg 66%
    17:00 +12°C° 0 mm 11 mps 665 mmHg 72%
    18:00 +11°C° 0 mm 11 mps 665 mmHg 78%
    19:00 +11°C° 0 mm 11 mps 665 mmHg 79%
    20:00 +11°C° 0 mm 10 mps 665 mmHg 80%
    21:00 +11°C° 0 mm 10 mps 665 mmHg 81%
    22:00 +9°C° 0 mm 10 mps 665 mmHg 83%
    23:00 +9°C° 0 mm 10 mps 665 mmHg 84%

    Tomorrow, 15 November, Thursday

    Time Temperature Precipitation Wind Pressure Humidity
    00:00 +9°C° 0 mm 10 mps 664 mmHg 86%
    01:00 +9°C° 0.2 mm 10 mps 664 mmHg 86%
    02:00 +9°C° 0.2 mm 10 mps 664 mmHg 87%
    03:00 +9°C° 0.2 mm 10 mps 663 mmHg 87%
    04:00 +8°C° 0.3 mm 10 mps 663 mmHg 88%
    05:00 +8°C° 0.3 mm 10 mps 663 mmHg 88%
    06:00 +8°C° 0.3 mm 10 mps 662 mmHg 89%
    07:00 +8°C° 0.3 mm 10 mps 663 mmHg 86%
    08:00 +8°C° 0.3 mm 10 mps 663 mmHg 84%
    09:00 +9°C° 0.3 mm 10 mps 663 mmHg 81%
    10:00 +10°C° 0.2 mm 9 mps 663 mmHg 80%
    11:00 +10°C° 0.2 mm 9 mps 663 mmHg 78%
    12:00 +10°C° 0.2 mm 8 mps 663 mmHg 77%
    13:00 +11°C° 0.1 mm 7 mps 662 mmHg 76%
    14:00 +11°C° 0.1 mm 6 mps 662 mmHg 74%
    15:00 +12°C° 0.1 mm 5 mps 662 mmHg 72%
    16:00 +12°C° 0.1 mm 4 mps 662 mmHg 73%
    17:00 +11°C° 0.1 mm 4 mps 663 mmHg 74%
    18:00 +11°C° 0.1 mm 3 mps 663 mmHg 75%
    19:00 +11°C° 0 mm 3 mps 663 mmHg 76%
    20:00 +10°C° 0 mm 3 mps 663 mmHg 77%
    21:00 +10°C° 0 mm 2 mps 663 mmHg 78%
    22:00 +9°C° 0 mm 2 mps 663 mmHg 79%
    23:00 +9°C° 0 mm 2 mps 663 mmHg 80%

    Day after tomorrow, 16 November, Friday

    Time Temperature Precipitation Wind Pressure Humidity
    00:00 +9°C° 0 mm 2 mps 663 mmHg 81%
    01:00 +8°C° 0 mm 2 mps 663 mmHg 82%
    02:00 +8°C° 0 mm 2 mps 662 mmHg 82%
    03:00 +8°C° 0 mm 2 mps 662 mmHg 83%
    04:00 +8°C° 0 mm 2 mps 662 mmHg 84%
    05:00 +8°C° 0 mm 1 mps 662 mmHg 85%
    06:00 +8°C° 0 mm 1 mps 662 mmHg 86%
    07:00 +8°C° 0 mm 2 mps 663 mmHg 79%
    08:00 +10°C° 0 mm 2 mps 663 mmHg 73%
    09:00 +12°C° 0 mm 2 mps 664 mmHg 66%
    10:00 +13°C° 0 mm 2 mps 664 mmHg 61%
    11:00 +13°C° 0 mm 3 mps 664 mmHg 56%
    12:00 +14°C° 0 mm 3 mps 664 mmHg 51%
    13:00 +14°C° 0 mm 3 mps 663 mmHg 50%
    14:00 +14°C° 0 mm 3 mps 663 mmHg 49%
    15:00 +16°C° 0 mm 2 mps 663 mmHg 48%
    16:00 +15°C° 0 mm 2 mps 662 mmHg 51%
    17:00 +14°C° 0 mm 3 mps 662 mmHg 54%
    18:00 +13°C° 0 mm 3 mps 662 mmHg 57%
    19:00 +14°C° 0 mm 2 mps 662 mmHg 60%
    20:00 +13°C° 0 mm 2 mps 662 mmHg 64%
    21:00 +13°C° 0 mm 2 mps 662 mmHg 68%
    22:00 +12°C° 0 mm 2 mps 662 mmHg 70%
    23:00 +12°C° 0 mm 1 mps 662 mmHg 72%

    17 November, Saturday

    Time Temperature Precipitation Wind Pressure Humidity
    00:00 +12°C° 0 mm 1 mps 661 mmHg 74%
    01:00 +11°C° 0.2 mm 1 mps 661 mmHg 75%
    02:00 +11°C° 0.2 mm 1 mps 661 mmHg 76%
    03:00 +11°C° 0.2 mm 1 mps 660 mmHg 77%
    04:00 +11°C° 0.4 mm 1 mps 660 mmHg 77%
    05:00 +10°C° 0.4 mm 1 mps 660 mmHg 78%
    06:00 +10°C° 0.4 mm 1 mps 660 mmHg 79%
    07:00 +11°C° 0.2 mm 1 mps 660 mmHg 76%
    08:00 +11°C° 0.2 mm 1 mps 660 mmHg 74%
    09:00 +12°C° 0.2 mm 2 mps 660 mmHg 71%
    10:00 +13°C° 0 mm 2 mps 660 mmHg 66%
    11:00 +12°C° 0 mm 3 mps 660 mmHg 60%
    12:00 +13°C° 0 mm 4 mps 660 mmHg 55%
    13:00 +14°C° 0 mm 4 mps 660 mmHg 53%
    14:00 +14°C° 0 mm 4 mps 660 mmHg 52%
    15:00 +14°C° 0 mm 5 mps 660 mmHg 51%
    16:00 +13°C° 0 mm 4 mps 660 mmHg 55%
    17:00 +12°C° 0 mm 4 mps 660 mmHg 59%
    18:00 +12°C° 0 mm 4 mps 660 mmHg 63%
    19:00 +11°C° 0 mm 4 mps 660 mmHg 68%
    20:00 +11°C° 0 mm 3 mps 660 mmHg 73%
    21:00 +10°C° 0 mm 3 mps 660 mmHg 78%
    22:00 +10°C° 0 mm 3 mps 660 mmHg 82%
    23:00 +9°C° 0 mm 2 mps 660 mmHg 86%

    18 November, Sunday

    Time Temperature Precipitation Wind Pressure Humidity
    00:00 +9°C° 0 mm 2 mps 660 mmHg 90%
    01:00 +9°C° 0 mm 1 mps 659 mmHg 91%
    02:00 +9°C° 0 mm 1 mps 659 mmHg 93%
    03:00 +9°C° 0 mm 1 mps 659 mmHg 94%
    04:00 +8°C° 0 mm 1 mps 659 mmHg 94%
    05:00 +7°C° 0 mm 0 mps 659 mmHg 94%
    06:00 +7°C° 0 mm 0 mps 659 mmHg 95%
    07:00 +8°C° 0 mm 0 mps 660 mmHg 89%
    08:00 +10°C° 0 mm 1 mps 660 mmHg 83%
    09:00 +11°C° 0 mm 1 mps 661 mmHg 77%
    10:00 +12°C° 0 mm 2 mps 661 mmHg 70%
    11:00 +13°C° 0 mm 2 mps 661 mmHg 62%
    12:00 +14°C° 0 mm 3 mps 661 mmHg 55%
    13:00 +14°C° 0 mm 3 mps 660 mmHg 53%
    14:00 +14°C° 0 mm 3 mps 660 mmHg 51%
    15:00 +14°C° 0 mm 4 mps 660 mmHg 49%
    16:00 +14°C° 0 mm 4 mps 660 mmHg 51%
    17:00 +13°C° 0 mm 4 mps 660 mmHg 54%
    18:00 +12°C° 0 mm 4 mps 660 mmHg 57%
    19:00 +12°C° 0 mm 5 mps 659 mmHg 59%
    20:00 +10°C° 0 mm 5 mps 659 mmHg 61%
    21:00 +10°C° 0 mm 6 mps 659 mmHg 63%
    22:00 +9°C° 0 mm 6 mps 659 mmHg 65%
    23:00 +9°C° 0 mm 6 mps 659 mmHg 66%

    19 November, Monday

    Time Temperature Precipitation Wind Pressure Humidity
    00:00 +9°C° 0 mm 6 mps 659 mmHg 68%
    01:00 +9°C° 0 mm 6 mps 658 mmHg 68%
    02:00 +9°C° 0 mm 6 mps 658 mmHg 69%
    03:00 +9°C° 0 mm 6 mps 658 mmHg 69%
    04:00 +8°C° 0 mm 7 mps 657 mmHg 70%
    05:00 +8°C° 0 mm 7 mps 657 mmHg 71%
    06:00 +8°C° 0 mm 7 mps 657 mmHg 72%
    07:00 +8°C° 0 mm 9 mps 657 mmHg 68%
    08:00 +8°C° 0 mm 10 mps 658 mmHg 64%
    09:00 +9°C° 0 mm 11 mps 658 mmHg 60%
    10:00 +11°C° 0.3 mm 11 mps 658 mmHg 58%
    11:00 +11°C° 0.3 mm 10 mps 657 mmHg 56%
    12:00 +11°C° 0.3 mm 10 mps 657 mmHg 54%
    13:00 +11°C° 0.5 mm 9 mps 657 mmHg 56%
    14:00 +11°C° 0.5 mm 8 mps 656 mmHg 57%
    15:00 +11°C° 0.5 mm 8 mps 656 mmHg 59%
    16:00 +10°C° 0.5 mm 7 mps 656 mmHg 62%
    17:00 +9°C° 0.5 mm 7 mps 656 mmHg 65%
    18:00 +8°C° 0.5 mm 6 mps 656 mmHg 69%
    19:00 +8°C° 0.6 mm 7 mps 656 mmHg 71%
    20:00 +7°C° 0.6 mm 8 mps 657 mmHg 73%
    21:00 +7°C° 0.6 mm 9 mps 657 mmHg 75%
    22:00 +7°C° 0.2 mm 9 mps 657 mmHg 76%
    23:00 +7°C° 0.2 mm 9 mps 657 mmHg 76%
    Show more